Time,TemperatureF,DewpointF,PressureIn,WindDirection,WindDirectionDegrees,WindSpeedMPH,WindSpeedGustMPH,Humidity,HourlyPrecipIn,Conditions,Clouds,dailyrainin,SoftwareType,DateUTC
2013-02-25 00:06:00,31.7,22.3,30.03,NNW,338,0.4,1.8,68,0.00,,,0.00,WUHU216HW,2013-02-25 05:06:00,
2013-02-25 00:16:00,31.5,22.1,30.03,NNW,338,1.1,1.3,68,0.00,,,0.00,WUHU216HW,2013-02-25 05:16:00,
2013-02-25 00:26:00,31.5,22.1,30.04,NNW,338,1.1,1.1,68,0.00,,,0.00,WUHU216HW,2013-02-25 05:26:00,
2013-02-25 00:36:00,31.3,22.3,30.04,NNW,338,0.0,0.4,69,0.00,,,0.00,WUHU216HW,2013-02-25 05:36:00,
2013-02-25 00:46:00,31.3,22.3,30.04,NNW,338,1.8,1.8,69,0.00,,,0.00,WUHU216HW,2013-02-25 05:46:00,
2013-02-25 00:48:00,31.3,22.3,30.04,NNW,338,0.2,1.8,69,2.59,,,0.07,WUHU216HW,2013-02-25 05:48:00,
2013-02-25 00:57:00,31.3,22.7,30.04,NNW,338,0.4,3.1,70,0.00,,,0.00,WUHU216HW,2013-02-25 05:57:00,
2013-02-25 01:07:00,31.5,22.9,30.05,NNW,338,1.1,3.8,70,0.00,,,0.00,WUHU216HW,2013-02-25 06:07:00,
2013-02-25 01:17:00,31.5,22.9,30.05,NNW,338,0.2,4.3,70,0.00,,,0.00,WUHU216HW,2013-02-25 06:17:00,
2013-02-25 01:27:00,31.5,22.9,30.05,NNW,338,1.8,3.1,70,0.00,,,0.00,WUHU216HW,2013-02-25 06:27:00,
2013-02-25 01:37:00,31.5,22.9,30.06,NNW,338,0.4,4.0,70,0.00,,,0.00,WUHU216HW,2013-02-25 06:37:00,
2013-02-25 01:47:00,31.5,23.2,30.06,NNW,338,1.6,5.6,71,0.00,,,0.00,WUHU216HW,2013-02-25 06:47:00,
2013-02-25 01:58:00,31.5,23.2,30.06,NNW,338,0.2,1.6,71,0.00,,,0.00,WUHU216HW,2013-02-25 06:58:00,
2013-02-25 02:08:00,31.7,23.4,30.06,NNW,338,0.4,2.5,71,0.00,,,0.00,WUHU216HW,2013-02-25 07:08:00,
2013-02-25 02:18:00,31.7,23.4,30.06,NNW,338,0.2,5.8,71,0.00,,,0.00,WUHU216HW,2013-02-25 07:18:00,
2013-02-25 02:28:00,31.7,23.7,30.06,NNW,338,0.2,5.1,72,0.00,,,0.00,WUHU216HW,2013-02-25 07:28:00,
2013-02-25 02:38:00,31.7,23.7,30.06,NNW,338,0.0,4.7,72,0.00,,,0.00,WUHU216HW,2013-02-25 07:38:00,
2013-02-25 02:48:00,31.3,23.3,30.06,NNW,338,0.0,1.8,72,0.00,,,0.00,WUHU216HW,2013-02-25 07:48:00,
2013-02-25 02:58:00,31.3,23.7,30.06,NNW,338,1.1,2.9,73,0.00,,,0.00,WUHU216HW,2013-02-25 07:58:00,
2013-02-25 03:08:00,31.3,23.7,30.07,NNW,338,0.2,1.6,73,0.00,,,0.00,WUHU216HW,2013-02-25 08:08:00,
2013-02-25 03:18:00,31.0,23.6,30.07,NNW,338,0.4,1.3,74,0.00,,,0.00,WUHU216HW,2013-02-25 08:18:00,
2013-02-25 03:28:00,31.0,23.3,30.08,NNW,338,0.0,0.7,73,0.00,,,0.00,WUHU216HW,2013-02-25 08:28:00,
2013-02-25 03:38:00,30.6,23.2,30.07,NNW,338,0.0,1.1,74,0.00,,,0.00,WUHU216HW,2013-02-25 08:38:00,
2013-02-25 03:48:00,30.8,23.8,30.07,NNW,338,0.2,1.6,75,0.00,,,0.00,WUHU216HW,2013-02-25 08:48:00,
2013-02-25 03:58:00,30.8,23.4,30.07,NNW,338,0.0,1.3,74,0.00,,,0.00,WUHU216HW,2013-02-25 08:58:00,
2013-02-25 04:08:00,30.8,24.1,30.08,NNW,338,1.6,1.6,76,0.00,,,0.00,WUHU216HW,2013-02-25 09:08:00,
2013-02-25 04:18:00,31.1,24.5,30.08,NNW,338,0.2,2.5,76,0.00,,,0.00,WUHU216HW,2013-02-25 09:18:00,
2013-02-25 04:28:00,31.3,24.3,30.08,NNW,338,0.2,1.8,75,0.00,,,0.00,WUHU216HW,2013-02-25 09:28:00,
2013-02-25 04:38:00,31.3,24.7,30.08,NNW,338,0.4,1.3,76,0.00,,,0.00,WUHU216HW,2013-02-25 09:38:00,
2013-02-25 04:48:00,31.3,24.7,30.08,NNW,338,0.0,1.3,76,0.00,,,0.00,WUHU216HW,2013-02-25 09:48:00,
2013-02-25 04:58:00,31.3,24.7,30.08,NNW,338,1.1,2.5,76,0.00,,,0.00,WUHU216HW,2013-02-25 09:58:00,
2013-02-25 05:08:00,31.3,24.7,30.09,NNW,338,0.0,1.8,76,0.00,,,0.00,WUHU216HW,2013-02-25 10:08:00,
2013-02-25 05:18:00,31.1,24.5,30.09,NNW,338,0.4,1.1,76,0.00,,,0.00,WUHU216HW,2013-02-25 10:18:00,
2013-02-25 05:28:00,31.1,24.8,30.09,NNW,338,0.0,1.8,77,0.00,,,0.00,WUHU216HW,2013-02-25 10:28:00,
2013-02-25 05:38:00,31.3,25.3,30.09,NNW,338,0.9,1.8,78,0.00,,,0.00,WUHU216HW,2013-02-25 10:38:00,
2013-02-25 05:48:00,31.3,25.3,30.09,NNW,338,1.1,3.6,78,0.00,,,0.00,WUHU216HW,2013-02-25 10:48:00,
2013-02-25 05:58:00,31.5,25.5,30.10,NNW,338,1.1,4.0,78,0.00,,,0.00,WUHU216HW,2013-02-25 10:58:00,
2013-02-25 06:08:00,31.5,25.5,30.09,NNW,338,0.2,3.1,78,0.00,,,0.00,WUHU216HW,2013-02-25 11:08:00,
2013-02-25 06:18:00,31.5,25.5,30.10,NNW,338,1.8,1.8,78,0.00,,,0.00,WUHU216HW,2013-02-25 11:18:00,
2013-02-25 06:28:00,31.7,25.7,30.10,NNW,338,1.1,2.5,78,0.00,,,0.00,WUHU216HW,2013-02-25 11:28:00,
2013-02-25 06:38:00,31.7,25.7,30.10,NNW,338,2.9,4.0,78,0.00,,,0.00,WUHU216HW,2013-02-25 11:38:00,
2013-02-25 06:48:00,32.0,26.0,30.10,NNW,338,0.4,7.2,78,0.00,,,0.00,WUHU216HW,2013-02-25 11:48:00,
2013-02-25 06:58:00,31.9,25.8,30.12,NNW,338,0.2,4.5,78,0.00,,,0.00,WUHU216HW,2013-02-25 11:58:00,
2013-02-25 07:08:00,31.9,25.8,30.12,NNW,338,0.4,1.1,78,0.00,,,0.00,WUHU216HW,2013-02-25 12:08:00,
2013-02-25 07:18:00,31.9,25.8,30.13,NNW,338,0.7,1.3,78,0.00,,,0.00,WUHU216HW,2013-02-25 12:18:00,
2013-02-25 07:28:00,32.0,26.3,30.13,NNW,338,0.9,1.3,79,0.00,,,0.00,WUHU216HW,2013-02-25 12:28:00,
2013-02-25 07:38:00,32.4,26.6,30.14,NNW,338,0.4,1.8,79,0.00,,,0.00,WUHU216HW,2013-02-25 12:38:00,
2013-02-25 07:48:00,32.8,27.0,30.14,NNW,338,0.0,2.5,79,2.59,,,0.68,WUHU216HW,2013-02-25 12:48:00,
2013-02-25 07:58:00,33.7,27.8,30.14,NNW,338,0.9,2.0,79,2.59,,,0.68,WUHU216HW,2013-02-25 12:58:00,
2013-02-25 08:08:00,34.4,28.2,30.15,NNW,338,0.7,2.0,78,2.59,,,0.82,WUHU216HW,2013-02-25 13:08:00,
2013-02-25 08:18:00,34.7,27.9,30.15,North,0,0.4,5.8,76,2.59,,,0.82,WUHU216HW,2013-02-25 13:18:00,
2013-02-25 08:28:00,34.9,28.1,30.15,NNE,23,0.7,3.6,76,2.59,,,0.82,WUHU216HW,2013-02-25 13:28:00,
2013-02-25 08:38:00,35.3,28.5,30.15,North,0,3.4,5.4,76,0.00,,,0.00,WUHU216HW,2013-02-25 13:38:00,
2013-02-25 08:48:00,36.0,28.8,30.15,NNE,23,0.9,6.0,75,0.00,,,0.00,WUHU216HW,2013-02-25 13:48:00,
2013-02-25 08:58:00,36.5,29.3,30.16,NNW,338,1.8,6.9,75,0.00,,,0.00,WUHU216HW,2013-02-25 13:58:00,
2013-02-25 09:09:00,37.1,29.5,30.15,NNE,23,4.7,7.8,74,0.00,,,0.00,WUHU216HW,2013-02-25 14:09:00,
2013-02-25 09:19:00,37.8,29.6,30.16,WNW,293,3.1,5.4,72,0.00,,,0.00,WUHU216HW,2013-02-25 14:19:00,
2013-02-25 09:29:00,38.5,29.3,30.16,WNW,293,1.8,3.4,69,0.00,,,0.00,WUHU216HW,2013-02-25 14:29:00,
2013-02-25 09:39:00,38.5,29.3,30.16,North,0,1.8,6.3,69,0.00,,,0.00,WUHU216HW,2013-02-25 14:39:00,
2013-02-25 09:49:00,39.1,29.7,30.16,NE,45,3.8,8.1,69,0.00,,,0.00,WUHU216HW,2013-02-25 14:49:00,
2013-02-25 09:59:00,39.1,29.0,30.16,NE,45,3.1,12.8,67,0.00,,,0.00,WUHU216HW,2013-02-25 14:59:00,
2013-02-25 10:09:00,38.3,28.3,30.17,ENE,68,2.9,10.1,67,0.00,,,0.00,WUHU216HW,2013-02-25 15:09:00,
2013-02-25 10:19:00,38.5,28.4,30.17,North,0,2.5,8.3,67,0.00,,,0.00,WUHU216HW,2013-02-25 15:19:00,
2013-02-25 10:29:00,38.5,28.8,30.17,NNW,338,2.5,5.4,68,0.00,,,0.00,WUHU216HW,2013-02-25 15:29:00,
2013-02-25 10:39:00,38.7,29.0,30.17,NNW,338,2.2,6.9,68,0.00,,,0.00,WUHU216HW,2013-02-25 15:39:00,
2013-02-25 10:49:00,39.4,29.3,30.17,NNW,338,2.9,7.4,67,0.00,,,0.00,WUHU216HW,2013-02-25 15:49:00,
2013-02-25 10:59:00,39.8,29.6,30.18,NW,315,1.1,7.4,67,0.00,,,0.00,WUHU216HW,2013-02-25 15:59:00,
2013-02-25 11:09:00,40.5,29.6,30.18,NNE,23,7.6,7.6,65,0.00,,,0.00,WUHU216HW,2013-02-25 16:09:00,
2013-02-25 11:19:00,40.1,29.3,30.18,East,90,1.1,9.6,65,0.00,,,0.00,WUHU216HW,2013-02-25 16:19:00,
2013-02-25 11:29:00,40.7,29.4,30.18,NW,315,0.7,10.3,64,0.00,,,0.00,WUHU216HW,2013-02-25 16:29:00,
2013-02-25 11:39:00,41.0,29.4,30.17,NNW,338,2.5,4.5,63,0.00,,,0.00,WUHU216HW,2013-02-25 16:39:00,
2013-02-25 11:49:00,40.7,29.4,30.18,NNW,338,1.8,7.6,64,0.00,,,0.00,WUHU216HW,2013-02-25 16:49:00,
2013-02-25 11:59:00,40.7,29.8,30.18,North,0,2.0,4.9,65,0.00,,,0.00,WUHU216HW,2013-02-25 16:59:00,
2013-02-25 12:09:00,40.5,28.9,30.19,NNW,338,1.6,10.5,63,0.00,,,0.00,WUHU216HW,2013-02-25 17:09:00,
2013-02-25 12:19:00,40.7,29.1,30.18,NNW,338,1.1,3.1,63,0.00,,,0.00,WUHU216HW,2013-02-25 17:19:00,
2013-02-25 12:29:00,41.0,29.4,30.18,North,0,4.0,7.6,63,0.00,,,0.00,WUHU216HW,2013-02-25 17:29:00,
2013-02-25 12:39:00,40.9,29.3,30.18,NNW,338,3.4,8.3,63,0.00,,,0.00,WUHU216HW,2013-02-25 17:39:00,
2013-02-25 12:49:00,41.0,29.4,30.19,NNE,23,3.4,4.9,63,0.00,,,0.00,WUHU216HW,2013-02-25 17:49:00,
2013-02-25 12:59:00,41.4,29.3,30.17,WSW,248,2.7,7.4,62,0.00,,,0.00,WUHU216HW,2013-02-25 17:59:00,
2013-02-25 13:09:00,41.4,29.7,30.18,North,0,1.6,5.1,63,2.59,,,1.24,WUHU216HW,2013-02-25 18:09:00,
2013-02-25 13:19:00,41.4,29.7,30.17,NNW,338,2.0,6.3,63,0.00,,,0.00,WUHU216HW,2013-02-25 18:19:00,
2013-02-25 13:29:00,41.8,28.9,30.17,NNW,338,1.3,6.9,60,0.00,,,0.00,WUHU216HW,2013-02-25 18:29:00,
2013-02-25 13:39:00,41.9,29.4,30.17,North,0,2.7,4.9,61,0.00,,,0.00,WUHU216HW,2013-02-25 18:39:00,
2013-02-25 13:49:00,41.4,29.0,30.18,NNW,338,1.1,7.6,61,0.00,,,0.00,WUHU216HW,2013-02-25 18:49:00,
2013-02-25 13:59:00,41.2,29.2,30.18,North,0,0.7,6.3,62,0.00,,,0.00,WUHU216HW,2013-02-25 18:59:00,
2013-02-25 14:09:00,41.4,29.3,30.18,North,0,1.3,6.5,62,0.00,,,0.00,WUHU216HW,2013-02-25 19:09:00,
2013-02-25 14:19:00,41.6,29.9,30.18,NNW,338,1.3,2.9,63,0.00,,,0.00,WUHU216HW,2013-02-25 19:19:00,
2013-02-25 14:24:00,41.8,29.3,30.18,NNW,338,0.9,4.7,61,0.07,,,1.31,WUHU216HW,2013-02-25 19:24:00,
2013-02-25 14:34:00,41.4,28.6,30.18,North,0,0.7,2.5,60,0.07,,,1.31,WUHU216HW,2013-02-25 19:34:00,
2013-02-25 14:44:00,41.6,29.5,30.19,NNW,338,0.7,2.7,62,0.07,,,1.31,WUHU216HW,2013-02-25 19:44:00,
2013-02-25 14:55:00,41.4,29.0,30.19,NNW,338,1.1,5.1,61,0.07,,,1.31,WUHU216HW,2013-02-25 19:55:00,
2013-02-25 15:05:00,41.6,29.2,30.19,NW,315,2.2,4.9,61,0.07,,,1.38,WUHU216HW,2013-02-25 20:05:00,
2013-02-25 15:15:00,41.4,28.6,30.19,NNW,338,1.6,3.4,60,0.07,,,1.38,WUHU216HW,2013-02-25 20:15:00,
2013-02-25 15:25:00,41.6,28.7,30.18,NE,45,6.0,6.3,60,0.07,,,1.38,WUHU216HW,2013-02-25 20:25:00,
2013-02-25 15:35:00,41.4,28.6,30.19,NNW,338,0.7,6.3,60,0.07,,,1.38,WUHU216HW,2013-02-25 20:35:00,
2013-02-25 15:45:00,41.0,28.6,30.19,North,0,4.3,6.3,61,0.07,,,1.38,WUHU216HW,2013-02-25 20:45:00,
2013-02-25 15:55:00,40.9,28.8,30.20,NNW,338,1.6,4.3,62,0.07,,,1.38,WUHU216HW,2013-02-25 20:55:00,
2013-02-25 16:05:00,40.9,29.3,30.20,West,270,1.3,3.1,63,0.07,,,1.45,WUHU216HW,2013-02-25 21:05:00,
2013-02-25 16:15:00,40.7,29.1,30.19,West,270,1.1,4.5,63,0.07,,,1.45,WUHU216HW,2013-02-25 21:15:00,
2013-02-25 16:25:00,40.7,29.1,30.19,NW,315,2.2,3.6,63,0.07,,,1.45,WUHU216HW,2013-02-25 21:25:00,
2013-02-25 16:35:00,40.7,29.1,30.19,NNW,338,0.4,3.4,63,0.07,,,1.45,WUHU216HW,2013-02-25 21:35:00,
2013-02-25 16:45:00,40.7,29.1,30.19,North,0,0.4,2.7,63,0.07,,,1.45,WUHU216HW,2013-02-25 21:45:00,
2013-02-25 16:55:00,40.5,28.9,30.20,West,270,0.7,2.0,63,0.07,,,1.45,WUHU216HW,2013-02-25 21:55:00,
2013-02-25 17:06:00,40.3,28.7,30.20,NNW,338,0.9,4.9,63,0.07,,,1.52,WUHU216HW,2013-02-25 22:06:00,
2013-02-25 17:16:00,40.3,28.7,30.20,North,0,1.3,4.0,63,0.07,,,1.52,WUHU216HW,2013-02-25 22:16:00,
2013-02-25 17:26:00,40.1,28.5,30.21,NE,45,2.9,2.9,63,0.07,,,1.52,WUHU216HW,2013-02-25 22:26:00,
2013-02-25 17:36:00,40.0,28.4,30.21,NNE,23,1.8,4.0,63,0.07,,,1.52,WUHU216HW,2013-02-25 22:36:00,
2013-02-25 17:46:00,39.6,28.0,30.22,North,0,1.1,4.0,63,0.07,,,1.52,WUHU216HW,2013-02-25 22:46:00,
2013-02-25 17:56:00,39.2,28.0,30.22,NNW,338,0.0,0.9,64,0.07,,,1.52,WUHU216HW,2013-02-25 22:56:00,
2013-02-25 18:06:00,38.5,27.4,30.22,North,0,0.0,0.7,64,0.07,,,1.59,WUHU216HW,2013-02-25 23:06:00,
2013-02-25 18:16:00,37.6,26.6,30.22,North,0,0.0,0.0,64,0.07,,,1.59,WUHU216HW,2013-02-25 23:16:00,
2013-02-25 18:26:00,36.7,26.0,30.23,North,0,0.0,0.0,65,0.07,,,1.59,WUHU216HW,2013-02-25 23:26:00,
2013-02-25 18:36:00,36.0,25.8,30.24,North,0,0.0,0.0,66,0.07,,,1.59,WUHU216HW,2013-02-25 23:36:00,
2013-02-25 18:46:00,35.3,25.4,30.24,North,0,0.0,0.7,67,0.07,,,1.59,WUHU216HW,2013-02-25 23:46:00,
2013-02-25 18:56:00,34.7,25.2,30.24,North,0,0.0,0.0,68,0.07,,,1.59,WUHU216HW,2013-02-25 23:56:00,
2013-02-25 19:07:00,34.4,25.2,30.24,North,0,0.0,0.0,69,0.07,,,1.66,WUHU216HW,2013-02-26 00:07:00,
2013-02-25 19:17:00,34.0,24.8,30.24,North,0,0.0,0.0,69,0.07,,,1.66,WUHU216HW,2013-02-26 00:17:00,
2013-02-25 19:27:00,33.7,24.8,30.25,North,0,0.0,0.0,70,0.07,,,1.66,WUHU216HW,2013-02-26 00:27:00,
2013-02-25 19:37:00,33.5,24.7,30.25,North,0,0.0,0.2,70,0.07,,,1.66,WUHU216HW,2013-02-26 00:37:00,
2013-02-25 19:47:00,33.5,25.0,30.25,North,0,0.0,0.0,71,0.07,,,1.66,WUHU216HW,2013-02-26 00:47:00,
2013-02-25 19:57:00,33.1,25.0,30.25,North,0,0.0,0.0,72,0.07,,,1.66,WUHU216HW,2013-02-26 00:57:00,
2013-02-25 20:07:00,32.9,25.2,30.25,SSE,158,0.0,0.4,73,0.07,,,1.73,WUHU216HW,2013-02-26 01:07:00,
2013-02-25 20:17:00,32.9,25.2,30.25,SSE,158,0.0,0.0,73,0.07,,,1.73,WUHU216HW,2013-02-26 01:17:00,
2013-02-25 20:27:00,32.9,25.5,30.25,SSE,158,0.0,0.0,74,0.07,,,1.73,WUHU216HW,2013-02-26 01:27:00,
2013-02-25 20:37:00,33.1,25.7,30.25,NNW,338,0.0,0.4,74,0.07,,,1.73,WUHU216HW,2013-02-26 01:37:00,
2013-02-25 20:47:00,33.7,26.5,30.25,North,0,0.4,2.2,75,0.07,,,1.73,WUHU216HW,2013-02-26 01:47:00,
2013-02-25 20:57:00,34.7,27.2,30.25,North,0,0.7,1.8,74,0.07,,,1.73,WUHU216HW,2013-02-26 01:57:00,
2013-02-25 21:07:00,35.5,27.6,30.25,NE,45,1.8,1.8,73,0.07,,,1.80,WUHU216HW,2013-02-26 02:07:00,
2013-02-25 21:17:00,35.8,28.0,30.26,North,0,0.0,2.9,73,0.07,,,1.80,WUHU216HW,2013-02-26 02:17:00,
2013-02-25 21:27:00,35.6,27.8,30.26,SW,225,0.0,0.9,73,0.07,,,1.80,WUHU216HW,2013-02-26 02:27:00,
2013-02-25 21:37:00,35.3,27.5,30.27,SSW,203,0.0,1.1,73,0.07,,,1.80,WUHU216HW,2013-02-26 02:37:00,
2013-02-25 21:47:00,35.1,27.3,30.27,South,180,0.4,1.1,73,0.07,,,1.80,WUHU216HW,2013-02-26 02:47:00,
2013-02-25 21:57:00,34.9,27.1,30.27,South,180,0.9,1.1,73,0.07,,,1.80,WUHU216HW,2013-02-26 02:57:00,
2013-02-25 22:07:00,34.9,27.1,30.27,SSW,203,0.0,0.7,73,0.07,,,1.87,WUHU216HW,2013-02-26 03:07:00,
2013-02-25 22:17:00,34.7,26.9,30.27,South,180,0.2,1.1,73,0.07,,,1.87,WUHU216HW,2013-02-26 03:17:00,
2013-02-25 22:27:00,34.9,27.1,30.27,South,180,0.0,0.4,73,0.07,,,1.87,WUHU216HW,2013-02-26 03:27:00,
2013-02-25 22:38:00,34.9,27.7,30.27,West,270,0.2,0.9,75,0.07,,,1.87,WUHU216HW,2013-02-26 03:38:00,
2013-02-25 22:48:00,34.9,27.4,30.26,WSW,248,0.0,0.2,74,0.07,,,1.87,WUHU216HW,2013-02-26 03:48:00,
2013-02-25 22:58:00,34.9,27.4,30.26,South,180,0.0,0.7,74,0.07,,,1.87,WUHU216HW,2013-02-26 03:58:00,
2013-02-25 23:08:00,34.9,27.4,30.26,South,180,0.7,1.1,74,0.07,,,1.94,WUHU216HW,2013-02-26 04:08:00,
2013-02-25 23:18:00,34.7,27.2,30.25,SSE,158,0.4,1.6,74,0.07,,,1.94,WUHU216HW,2013-02-26 04:18:00,
2013-02-25 23:28:00,34.2,26.6,30.24,SSE,158,0.2,0.4,74,0.07,,,1.94,WUHU216HW,2013-02-26 04:28:00,
2013-02-25 23:38:00,33.7,26.2,30.25,SE,135,0.2,0.7,74,0.07,,,1.94,WUHU216HW,2013-02-26 04:38:00,
2013-02-25 23:48:00,33.1,25.7,30.25,SE,135,1.1,1.1,74,0.07,,,1.94,WUHU216HW,2013-02-26 04:48:00,
2013-02-25 23:58:00,32.8,25.7,30.25,SE,135,0.0,1.1,75,0.07,,,1.94,WUHU216HW,2013-02-26 04:58:00,